Weather Roundup
Issued by NWS Chicago, IL

Home | Current Version | Previous Version | Text Only | Print | Product List | Glossary Off
Versions: 1 2 3 4 5 6 7 8 9 10 11 12 13 14 15 16 17 18 19 20 21 22 23 24 25 26 27 28 29 30 31 32 33 34 35 36 37 38 39 40 41 42 43 44 45 46 47 48 49 50

000
NZUS59 KLOT 060912
HRRLOT

CHICAGO AREA WEATHER ROUNDUP
NATIONAL WEATHER SERVICE CHICAGO/ROMEOVILLE IL
400 AM CDT MON JUL 06 2015

NOTE: "FAIR" INDICATES FEW OR NO CLOUDS BELOW 12,000 FEET WITH NO
SIGNIFICANT WEATHER AND/OR OBSTRUCTIONS TO VISIBILITY.

* THESE STATIONS ARE NOT UNDER NWS QUALITY CONTROL. THEY ALSO MAY NOT
  REPORT WEATHER SUCH AS PRECIPITATION OR FOG.

ILZ005-006-012>014-019>023-061000-
NORTHEAST ILLINOIS

CITY           SKY/WX    TMP DP  RH WIND       PRES   REMARKS
OHARE          PTCLDY    66  62  87 W3        30.01F
MIDWAY         CLEAR     71  64  78 SE6       30.01F
AURORA         CLEAR     65  60  84 CALM      30.02S HAZE
LANSING*       CLEAR     65  60  86 S3        30.02F
JOLIET*        CLEAR     66  65  97 CALM      30.02S FOG
WAUKEGAN       CLEAR     63  60  90 S6        29.98F
DUPAGE AIRPORT CLEAR     64  61  90 CALM      30.01F FOG
WHEELING       CLEAR     66  61  84 S5        30.01F
KANKAKEE*      CLEAR     66  64  94 SE3       30.03S FOG
MORRIS*        CLEAR     65  63  93 SE3       30.00S FOG
LEWIS AIRPORT* CLEAR     65  62  90 S5        30.02S FOG
NORTHERLY IS     N/A     70  62  76 S5          N/A
$$

WIZ051-052-058>065-066-070>072-061000-
SOUTHEAST WISCONSIN

CITY           SKY/WX    TMP DP  RH WIND       PRES   REMARKS
MILWAUKEE      PTCLDY    66  60  81 S6        29.98F
KENOSHA*       CLEAR     63  59  87 S7        29.98F FOG
RACINE*        PTCLDY    66  60  81 S7        29.99F
BURLINGTON     CLEAR     56  55  97 CALM      29.97F FOG
WAUKESHA       CLEAR     63  59  88 S5        29.98F
WEST BEND      PTCLDY    59  55  88 CALM      29.96F FOG
$$

INZ001>003-010>013-019-020-061000-
NORTHWEST INDIANA

CITY           SKY/WX    TMP DP  RH WIND       PRES   REMARKS
GARY*          CLEAR    N/A N/A N/A SE3       30.03F HAZE
MICHIGAN CITY* NOT AVBL
RENSSELAER*    NOT AVBL
VALPARAISO     CLEAR     63  60  90 CALM      30.05S FOG
$$

LMZ740>746-061000-
SOUTHERN LAKE MICHIGAN

STATION/POSITION TIME  SKY/WX   TEMP WIND        PRES    VSBY
                                AIR  DIR/SP/G
                 (UTC)          (F)  (DEG/KT/KT) (MB)    (MI)
HARRISON CRIB    0800            72  200/  9/ 10   N/A
BURNHAM HARBOR   0900            70  190/  6/  7   N/A
CALUMET HARBOR   0800            70  200/  2/  3   N/A
BURNS HARBOR     0800            70  180/  7/ 12 1016.9S
MICHIGAN CITY    0800            69  150/  9/ 12   N/A
$$

ABBREVIATIONS USED IN REMARKS
   TC - TEMPERATURE IN CELSIUS
  WCI - WIND CHILL INDEX
   HX - HEAT INDEX
  VSB - VISIBILITY
$$



USA.gov is the U.S. government's official web portal to all federal, state and local government web resources and services.